{"data":{"norad_id":41948,"epoch":"2026-05-25T04:08:19.440672Z","epoch_age_seconds":70362,"freshness":"FRESH","line1":"1 41948U 17008A   26145.17244723  .00003713  00000+0  17917-3 0  9991","line2":"2 41948  97.4118 204.9051 0003583 331.8771  28.2270 15.19293095514081","mean_motion":15.19293095,"eccentricity":0.0003583,"inclination_deg":97.4118,"raan_deg":204.9051,"arg_perigee_deg":331.8771,"mean_anomaly_deg":28.227,"bstar":0.00017917,"rev_number":51408,"period_min":94.780921781258,"perigee_km":505.50849714003,"apogee_km":510.44308556632,"semimajor_km":6886.1127913532,"source":"CELESTRAK","updated_at":"2026-05-25T13:38:12.825070Z"}}